[[{"header":{"parameterUnit":"m.s-1","parameterCategory":2,"la1":30.2991,"la2":30.254,"lo1":-89.0895,"lo2":-89.0444,"dy":0.0017,"dx":0.0017,"nx":28,"ny":28,"refTime":"2025-11-15T09:00:00:Z","depth":"0","parameterNumber":2,"parameterNumberName":"U-component_of_CURRENTS"},"data":[0,0,0,0,0,0,0,0,0,0,0,0,0,0,0,0,0,0,0,0,0,0,0,0,0,0,0,0,0,0,0,0,0,0,0,0,0,0,0,0,0,0,0,0,0,0,0,0,0,0,0,0,0,0,0,0,0,0,0.3515,0.3515,0,0.3454,0.3452,0.3451,0.3332,0.333,0.3328,0.3327,0.3221,0.3219,0.3218,0,0,0,0,0,0,0,0,0,0,0,0,0,0.3502,0.3503,0.3515,0.3515,0.3515,0.3454,0.3452,0.3451,0.3332,0.333,0.3328,0.3326,0.3221,0.322,0.3218,0,0,0,0,0,0,0,0,0,0,0,0,0,0.3474,0.3503,0.3515,0.3454,0.3448,0.3454,0.3452,0.345,0.3332,0.333,0.3327,0.3325,0.3222,0.322,0.3218,0.3254,0,0,0.3212,0.3211,0,0,0,0,0,0,0,0,0.3476,0.3473,0.3463,0.3458,0.3452,0.3405,0.3409,0.3385,0.3333,0.3368,0.3327,0.3324,0.3285,0.3278,0.3261,0.325,0.3245,0.3212,0.321,0.321,0.3209,0,0,0,0,0,0,0,0.3478,0.3475,0.3482,0.3463,0.3457,0.3421,0.3414,0.3404,0.3334,0.3365,0.3358,0.3364,0.328,0.3263,0.3258,0.3243,0.3212,0.321,0.3209,0.3208,0.3286,0.3289,0,0,0,0,0,0,0.3505,0.3478,0.3485,0.3481,0.3467,0.3424,0.3415,0.3416,0.3335,0.3323,0.3367,0.3359,0.3268,0.326,0.3254,0.334,0.321,0.3208,0.3207,0.3283,0.3287,0.3291,0,0,0,0,0,0,0.3505,0.3506,0.3487,0.3484,0.348,0.3428,0.3429,0.3416,0.34,0.3338,0.3323,0.3364,0.3266,0.3256,0.3263,0.3333,0.3207,0.3205,0.3279,0.3284,0.3289,0.3483,0,0,0,0,0,0,0.3505,0.3506,0.3526,0.3486,0.3482,0.3503,0.3432,0.3417,0.3411,0.3401,0.3332,0.3319,0.3263,0.3267,0.3262,0.3328,0.3204,0.3275,0.3281,0.3287,0.3472,0.3494,0.3512,0,0,0,0,0,0.3505,0.3537,0.3527,0.3529,0.3507,0.3506,0.35,0.3448,0.3414,0.342,0.3382,0.3321,0.3302,0.3268,0.3261,0.3329,0.3272,0.328,0.3287,0.3464,0.349,0.3512,0,0,0,0,0,0,0.354,0.3528,0.3515,0.3542,0.3535,0.3488,0.3499,0.3467,0.3441,0.3432,0.3359,0.3346,0.338,0.3332,0.3297,0.337,0.3279,0.3286,0.3416,0.344,0.346,0.345,0.3202,0,0,0,0,0,0.3564,0.3581,0.3565,0.3588,0.3591,0.3551,0.3549,0.3517,0.349,0.3474,0.3431,0.3401,0.3408,0.3404,0.3386,0.3429,0.3423,0.3469,0.3489,0.3506,0.3494,0.3577,0.3604,0.3315,0.3315,0.3314,0,0,0.3584,0.3584,0.3591,0.3598,0.3585,0.3604,0.354,0.3548,0.3564,0.3472,0.3483,0.3468,0.3435,0.3479,0.3491,0.3446,0.3594,0.3515,0.353,0.3508,0.3588,0.3616,0.3641,0.332,0.3319,0.3318,0,0,0.363,0.3635,0.3661,0.3669,0.3673,0.3655,0.3667,0.3638,0.3625,0.3651,0.36,0.363,0.3614,0.3616,0.3616,0.3739,0.3697,0.3738,0.3832,0.3915,0.394,0.3961,0.4031,0.4057,0.3749,0.375,0.375,0,0.3654,0.3678,0.3671,0.3704,0.3711,0.3687,0.371,0.3717,0.3695,0.3702,0.3676,0.3704,0.3684,0.3754,0.3799,0.3786,0.3815,0.3747,0.3943,0.3964,0.3982,0.4048,0.4074,0.376,0.3759,0.3758,0.3757,0,0.3709,0.3737,0.3758,0.3785,0.3802,0.382,0.383,0.385,0.3843,0.3841,0.3901,0.3895,0.3901,0.3933,0.3904,0.403,0.4007,0.3963,0.3885,0.4023,0.4084,0.4108,0.3774,0.3771,0.3768,0.3765,0,0,0.3709,0.3779,0.3781,0.3796,0.3838,0.3841,0.391,0.394,0.3971,0.4002,0.4043,0.411,0.4099,0.4098,0.4088,0.417,0.4355,0.4132,0.4131,0.4206,0.4547,0.4575,0.4602,0.4357,0.4361,0.4364,0.4552,0,0.3736,0.3797,0.383,0.3878,0.3898,0.3923,0.3976,0.4015,0.4048,0.4091,0.4139,0.4171,0.4167,0.4178,0.4276,0.4304,0.4419,0.4307,0.4394,0.4396,0.441,0.4631,0.4569,0.4735,0.4574,0.4578,0.4581,0,0.3751,0.3787,0.3834,0.3893,0.3904,0.3934,0.3989,0.4039,0.4128,0.4155,0.4231,0.4248,0.4362,0.4333,0.4518,0.4448,0.4523,0.4567,0.4574,0.4537,0.4469,0.4562,0.4783,0.4527,0.4616,0.4613,0.4611,0,0.3693,0.3777,0.3802,0.3823,0.3899,0.392,0.3959,0.4044,0.408,0.4186,0.4219,0.4351,0.4391,0.4528,0.4626,0.4587,0.4824,0.4771,0.4882,0.4883,0.4811,0.4799,0.4791,0.4945,0.4945,0.4944,0.4944,0,0.3674,0.369,0.377,0.3776,0.3801,0.3874,0.3909,0.3977,0.4069,0.4119,0.423,0.4294,0.4445,0.4581,0.4682,0.4869,0.4883,0.4949,0.496,0.4881,0.4874,0.4624,0.4503,0.4951,0.495,0.4948,0.4947,0,0.3585,0.3647,0.3673,0.3749,0.3766,0.3775,0.3849,0.3883,0.3987,0.406,0.4092,0.4268,0.4463,0.4628,0.4842,0.4929,0.4964,0.5156,0.5052,0.5049,0.4913,0.4807,0.4707,0.4584,0.5333,0.5336,0.5337,0,0.3542,0.355,0.3617,0.362,0.3642,0.3673,0.3693,0.381,0.3857,0.404,0.407,0.4286,0.4453,0.4798,0.5002,0.5249,0.5019,0.5304,0.5232,0.4948,0.4837,0.46,0.4484,0.5224,0.5225,0.5226,0.5226,0,0.3451,0.3475,0.3494,0.351,0.3521,0.355,0.36,0.363,0.378,0.3879,0.4047,0.421,0.4572,0.4803,0.5127,0.528,0.5031,0.5326,0.5063,0.4805,0.4515,0.4384,0.5029,0.5232,0.5231,0.5231,0.5231,0.523,0.3369,0.3361,0.3391,0.3389,0.341,0.3433,0.3433,0.3528,0.3625,0.3776,0.3966,0.4199,0.4535,0.5012,0.5116,0.5172,0.5093,0.5075,0.4993,0.4792,0.4599,0.5266,0.5451,0.5452,0.5452,0.5453,0.5453,0,0.3268,0.3271,0.3271,0.3278,0.3258,0.3314,0.3367,0.338,0.3474,0.3688,0.3858,0.4209,0.4473,0.4718,0.4904,0.4794,0.4654,0.4662,0.427,0.4193,0.4835,0.475,0.4753,0.4753,0.4753,0.4753,0.4754,0.4754,0.3214,0.3182,0.3187,0.3129,0.3129,0.3107,0.3127,0.3189,0.3329,0.3517,0.3707,0.3902,0.4131,0.4329,0.4267,0.4271,0.3878,0.3846,0.3698,0.4082,0.4109,0.4134,0.4021,0.3871,0.387,0.2945,0.2938,0.2932]},{"header":{"parameterUnit":"m.s-1","parameterCategory":2,"la1":30.2991,"la2":30.254,"lo1":-89.0895,"lo2":-89.0444,"dy":0.0017,"dx":0.0017,"nx":28,"ny":28,"refTime":"2025-11-15T09:00:00:Z","depth":"0","parameterNumber":3,"parameterNumberName":"V-component_of_CURRENTS"},"data":[0,0,0,0,0,0,0,0,0,0,0,0,0,0,0,0,0,0,0,0,0,0,0,0,0,0,0,0,0,0,0,0,0,0,0,0,0,0,0,0,0,0,0,0,0,0,0,0,0,0,0,0,0,0,0,0,0,0,-0.0456,-0.0456,0,-0.0517,-0.0518,-0.0518,-0.0569,-0.057,-0.057,-0.0571,-0.0646,-0.0648,-0.0649,0,0,0,0,0,0,0,0,0,0,0,0,0,-0.0376,-0.0377,-0.0455,-0.0456,-0.0457,-0.0517,-0.0518,-0.0518,-0.0569,-0.057,-0.0571,-0.0571,-0.0646,-0.0647,-0.0649,0,0,0,0,0,0,0,0,0,0,0,0,0,-0.042,-0.0378,-0.0455,-0.0491,-0.0495,-0.0517,-0.0518,-0.0519,-0.0569,-0.057,-0.0571,-0.0572,-0.0645,-0.0647,-0.0649,-0.0639,0,0,-0.0655,-0.0656,0,0,0,0,0,0,0,0,-0.0417,-0.0422,-0.0485,-0.0489,-0.0494,-0.0538,-0.0518,-0.056,-0.0568,-0.0538,-0.0571,-0.0572,-0.0612,-0.0617,-0.0623,-0.0643,-0.0646,-0.0655,-0.0657,-0.0657,-0.0658,0,0,0,0,0,0,0,-0.0414,-0.042,-0.0478,-0.0486,-0.0491,-0.0503,-0.051,-0.0526,-0.0567,-0.0541,-0.0546,-0.0556,-0.0614,-0.0621,-0.0625,-0.0647,-0.0655,-0.0657,-0.0658,-0.0659,-0.0646,-0.0644,0,0,0,0,0,0,-0.041,-0.0417,-0.0476,-0.048,-0.046,-0.0504,-0.0512,-0.0521,-0.0567,-0.0575,-0.0555,-0.0558,-0.0617,-0.0623,-0.0628,-0.0597,-0.0657,-0.0659,-0.066,-0.0647,-0.0646,-0.0644,0,0,0,0,0,0,-0.0408,-0.0414,-0.0473,-0.0451,-0.046,-0.0504,-0.0514,-0.0522,-0.0532,-0.0577,-0.0586,-0.0558,-0.0618,-0.0625,-0.0629,-0.0601,-0.066,-0.0662,-0.0649,-0.0647,-0.0645,-0.0549,0,0,0,0,0,0,-0.0405,-0.0413,-0.0411,-0.0451,-0.0461,-0.047,-0.0514,-0.0522,-0.0538,-0.0542,-0.0583,-0.0591,-0.0619,-0.0626,-0.0631,-0.0605,-0.0664,-0.0651,-0.0648,-0.0646,-0.0554,-0.0544,-0.0535,0,0,0,0,0,-0.0402,-0.0388,-0.041,-0.0417,-0.0459,-0.0469,-0.0474,-0.0508,-0.0536,-0.0525,-0.0554,-0.059,-0.0612,-0.0626,-0.0633,-0.0606,-0.0653,-0.0649,-0.0646,-0.0559,-0.0546,-0.0535,0,0,0,0,0,0,-0.0348,-0.0393,-0.0418,-0.0419,-0.0438,-0.0478,-0.0472,-0.0502,-0.0517,-0.0524,-0.0572,-0.058,-0.0574,-0.06,-0.0615,-0.0593,-0.0637,-0.0635,-0.0568,-0.0557,-0.0548,-0.0529,-0.0665,0,0,0,0,0,-0.0337,-0.0341,-0.0383,-0.0381,-0.0389,-0.0432,-0.0441,-0.0465,-0.0489,-0.0498,-0.0528,-0.0553,-0.0562,-0.0569,-0.0584,-0.0571,-0.0598,-0.0558,-0.0548,-0.054,-0.0528,-0.0534,-0.0524,-0.0633,-0.0633,-0.0633,0,0,-0.0317,-0.0342,-0.0345,-0.037,-0.039,-0.0382,-0.0438,-0.0444,-0.0434,-0.0502,-0.0492,-0.0522,-0.0552,-0.0537,-0.0536,-0.0557,-0.0524,-0.0535,-0.0528,-0.0521,-0.0529,-0.0519,-0.051,-0.063,-0.0631,-0.0631,0,0,-0.0274,-0.0299,-0.0288,-0.0296,-0.0322,-0.0341,-0.0341,-0.0377,-0.0387,-0.0386,-0.0427,-0.0434,-0.0459,-0.0464,-0.0473,-0.0417,-0.0474,-0.0429,-0.0364,-0.037,-0.0361,-0.0354,-0.0379,-0.0375,-0.0422,-0.0422,-0.0422,0,-0.0247,-0.0245,-0.0282,-0.0268,-0.0267,-0.0318,-0.0296,-0.0305,-0.0336,-0.0335,-0.0368,-0.0389,-0.0417,-0.0392,-0.0375,-0.0394,-0.042,-0.0407,-0.0357,-0.035,-0.0344,-0.0373,-0.0369,-0.0417,-0.0418,-0.0418,-0.0419,0,-0.0201,-0.0193,-0.0181,-0.0184,-0.018,-0.0168,-0.0189,-0.0186,-0.0214,-0.0231,-0.0224,-0.0261,-0.0277,-0.0282,-0.0314,-0.0279,-0.032,-0.0346,-0.0386,-0.0327,-0.0362,-0.0359,-0.041,-0.0412,-0.0413,-0.0415,0,0,-0.0154,-0.0151,-0.0145,-0.0135,-0.0136,-0.013,-0.0099,-0.009,-0.0073,-0.0101,-0.0081,-0.0095,-0.0135,-0.0147,-0.0187,-0.0189,-0.0174,-0.0247,-0.0249,-0.0272,-0.0205,-0.0228,-0.0229,-0.0198,-0.0197,-0.0196,-0.0248,0,-0.0107,-0.0071,-0.0074,-0.0026,-0.001,-0.0025,0.0011,0.0015,0.0005,0.0015,-0.0019,-0.0021,-0.0077,-0.0091,-0.0097,-0.0156,-0.0164,-0.0159,-0.0259,-0.0262,-0.0289,-0.0225,-0.0131,-0.0169,-0.0247,-0.0247,-0.0246,0,-0.0062,-0.0046,0.0002,0.0039,0.0048,0.0077,0.0114,0.0137,0.0146,0.0135,0.0127,0.0086,0.0078,0.0016,-0.0041,-0.0041,-0.0111,-0.0159,-0.0163,-0.0214,-0.028,-0.0239,-0.0163,-0.035,-0.0244,-0.0244,-0.0244,0,-0.0033,0.0013,0.005,0.0061,0.0096,0.0125,0.0147,0.0171,0.0196,0.0203,0.0211,0.0187,0.0166,0.0097,-0.0011,-0.0029,-0.0084,-0.0125,-0.0209,-0.0213,-0.0166,-0.0167,-0.0277,-0.0157,-0.0157,-0.0157,-0.0157,0,0.0008,0.0039,0.0064,0.0082,0.0142,0.0156,0.0218,0.0233,0.0265,0.0307,0.0265,0.0284,0.0185,0.0133,0.0028,-0.0079,-0.0058,-0.0181,-0.0214,-0.0131,-0.0129,-0.0318,-0.0456,-0.0159,-0.0158,-0.0158,-0.0158,0,0.0023,0.004,0.0084,0.013,0.0151,0.0188,0.0254,0.03,0.0318,0.0368,0.0371,0.0356,0.03,0.0191,0.008,-0.0028,-0.0222,-0.018,-0.0087,-0.0108,-0.0362,-0.0498,-0.0645,-0.0731,-0.0271,-0.0272,-0.0272,0,0.0028,0.005,0.0109,0.0145,0.0167,0.0224,0.0276,0.0316,0.0366,0.0415,0.0446,0.0415,0.0425,0.0254,0.0091,-0.0072,-0.025,-0.0142,-0.0151,-0.0349,-0.0526,-0.0608,-0.0675,-0.0057,-0.0055,-0.0054,-0.0054,0,0.004,0.0061,0.0099,0.0171,0.0228,0.03,0.037,0.042,0.0478,0.0535,0.0596,0.0612,0.0476,0.0406,0.018,0.0036,-0.026,-0.0129,-0.0337,-0.0364,-0.0455,-0.0561,-0.0084,-0.0045,-0.0045,-0.0046,-0.0047,-0.0047,0.0049,0.0084,0.014,0.0211,0.0281,0.0379,0.0452,0.0544,0.0648,0.0788,0.0758,0.0902,0.075,0.0486,0.0194,-0.0194,-0.0252,-0.0284,-0.0432,-0.0497,-0.0575,-0.0098,-0.0102,-0.0103,-0.0104,-0.0105,-0.0106,0,0.0066,0.0116,0.0183,0.0278,0.0363,0.0397,0.0525,0.0622,0.0771,0.0974,0.1071,0.1242,0.0949,0.0603,0.008,-0.0353,-0.052,-0.0608,-0.0689,-0.0746,-0.0296,-0.0282,-0.0321,-0.0321,-0.032,-0.032,-0.032,-0.032,0.0083,0.0148,0.019,0.0331,0.0406,0.0539,0.0623,0.0781,0.0966,0.1316,0.1589,0.1765,0.1588,0.0389,-0.0448,-0.0669,-0.1023,-0.1081,-0.1311,-0.0999,-0.098,-0.0961,-0.0977,-0.1161,-0.1163,-0.1624,-0.1629,-0.1633]}],[{"header":{"parameterUnit":"m.s-1","parameterCategory":2,"la1":30.2991,"la2":30.254,"lo1":-89.0895,"lo2":-89.0444,"dy":0.0017,"dx":0.0017,"nx":28,"ny":28,"refTime":"2025-11-15T09:00:00:Z","depth":"2","parameterNumber":2,"parameterNumberName":"U-component_of_CURRENTS"},"data":[0,0,0,0,0,0,0,0,0,0,0,0,0,0,0,0,0,0,0,0,0,0,0,0,0,0,0,0,0,0,0,0,0,0,0,0,0,0,0,0,0,0,0,0,0,0,0,0,0,0,0,0,0,0,0,0,0,0,0.2492,0.2493,0,0.2578,0.2579,0.258,0.2606,0.2605,0.2605,0.2605,0.2655,0.2657,0.2658,0,0,0,0,0,0,0,0,0,0,0,0,0,0.2367,0.2369,0.2492,0.2494,0.2495,0.2578,0.2579,0.258,0.2606,0.2605,0.2605,0.2605,0.2655,0.2657,0.2659,0,0,0,0,0,0,0,0,0,0,0,0,0,0.2432,0.2369,0.2492,0.2519,0.2522,0.2578,0.2579,0.2581,0.2606,0.2605,0.2605,0.2605,0.2654,0.2656,0.2659,0.2681,0,0,0.2666,0.2667,0,0,0,0,0,0,0,0,0.2428,0.2436,0.2514,0.2517,0.2521,0.2583,0.2554,0.2613,0.2606,0.2572,0.2605,0.2604,0.2629,0.2634,0.2648,0.2684,0.2686,0.2666,0.2668,0.2669,0.2669,0,0,0,0,0,0,0,0.2424,0.2433,0.2524,0.2515,0.252,0.2533,0.2541,0.2565,0.26,0.2575,0.2578,0.259,0.2631,0.2646,0.265,0.2687,0.2666,0.2668,0.267,0.2671,0.2826,0.2829,0,0,0,0,0,0,0.2417,0.2429,0.2522,0.2527,0.2475,0.2535,0.2545,0.2562,0.26,0.2607,0.2591,0.2591,0.2642,0.2647,0.2652,0.2737,0.2669,0.2671,0.2672,0.2824,0.2827,0.283,0,0,0,0,0,0,0.2414,0.2425,0.2518,0.2481,0.2494,0.2538,0.2557,0.2564,0.2595,0.2613,0.2618,0.2617,0.2642,0.2648,0.27,0.2737,0.2672,0.2674,0.2821,0.2825,0.2829,0.2872,0,0,0,0,0,0,0.241,0.2423,0.2439,0.2481,0.2496,0.2565,0.2558,0.2566,0.2604,0.2606,0.2637,0.2641,0.2642,0.2697,0.2703,0.2739,0.2676,0.2817,0.2822,0.2827,0.2867,0.2877,0.2886,0,0,0,0,0,0.2405,0.2425,0.2439,0.2451,0.2515,0.2567,0.2576,0.2604,0.2606,0.2629,0.2656,0.264,0.2734,0.2701,0.2707,0.2745,0.2815,0.2821,0.2827,0.2863,0.2875,0.2885,0,0,0,0,0,0,0.2373,0.2431,0.2447,0.2482,0.2529,0.2572,0.2598,0.2616,0.2657,0.2662,0.267,0.2677,0.274,0.2743,0.2707,0.281,0.2774,0.2781,0.28,0.2811,0.282,0.2819,0.2678,0,0,0,0,0,0.2375,0.2409,0.2463,0.2493,0.2519,0.2563,0.2589,0.2613,0.2651,0.2669,0.2692,0.2726,0.2769,0.2789,0.2823,0.2873,0.2905,0.2906,0.2915,0.2923,0.293,0.3026,0.3044,0.285,0.285,0.285,0,0,0.2366,0.2407,0.2423,0.249,0.2527,0.2572,0.2578,0.2629,0.2667,0.2668,0.2727,0.2759,0.2792,0.2854,0.2882,0.2859,0.2997,0.2931,0.2936,0.294,0.3035,0.3053,0.307,0.2854,0.2853,0.2853,0,0,0.2366,0.2409,0.2438,0.2484,0.2553,0.2589,0.2608,0.2668,0.2698,0.2758,0.2778,0.2837,0.2887,0.2928,0.2951,0.3035,0.3046,0.3048,0.3087,0.3181,0.3197,0.3212,0.3279,0.3299,0.3048,0.3048,0.3048,0,0.2353,0.2401,0.2453,0.2498,0.254,0.2598,0.264,0.2685,0.2752,0.2792,0.2782,0.2906,0.2925,0.3019,0.3045,0.3055,0.3102,0.3035,0.3192,0.3207,0.3221,0.3286,0.3308,0.3051,0.305,0.305,0.305,0,0.2377,0.242,0.2445,0.2524,0.2577,0.2626,0.2698,0.2752,0.2795,0.2843,0.2947,0.299,0.3065,0.3084,0.3084,0.3203,0.3202,0.3193,0.3156,0.3243,0.3307,0.3329,0.3055,0.3054,0.3053,0.3052,0,0,0.2325,0.2439,0.2446,0.2485,0.2598,0.2636,0.2722,0.2816,0.2878,0.2951,0.3034,0.3118,0.3157,0.3188,0.3214,0.3283,0.3416,0.3279,0.3282,0.3332,0.362,0.3338,0.3335,0.3439,0.3443,0.3446,0.3623,0,0.2328,0.24,0.2468,0.2539,0.2585,0.2677,0.2751,0.2846,0.293,0.3024,0.3106,0.3191,0.3194,0.3235,0.3317,0.3397,0.3477,0.3369,0.3539,0.3544,0.3272,0.3351,0.3125,0.3239,0.3645,0.3648,0.3651,0,0.2325,0.2378,0.2445,0.2554,0.2584,0.2638,0.2777,0.2852,0.3007,0.3079,0.3198,0.326,0.3394,0.3364,0.3573,0.3508,0.3573,0.3621,0.363,0.3363,0.3302,0.322,0.3263,0.3687,0.3684,0.3682,0.3679,0,0.2255,0.2358,0.241,0.2449,0.2583,0.2632,0.271,0.2865,0.2949,0.3117,0.3192,0.3364,0.345,0.3576,0.3681,0.3648,0.3886,0.3854,0.3669,0.3651,0.3485,0.3441,0.4002,0.4001,0.4001,0.4001,0.4,0,0.223,0.2263,0.2377,0.2402,0.247,0.2584,0.2682,0.2791,0.2959,0.3064,0.321,0.3327,0.351,0.3653,0.3735,0.3762,0.3948,0.3685,0.3678,0.3489,0.3445,0.3849,0.3829,0.4007,0.4006,0.4004,0.4003,0,0.2144,0.222,0.2276,0.24,0.2437,0.2484,0.2645,0.2723,0.2891,0.3031,0.3085,0.3342,0.3534,0.3681,0.3897,0.3794,0.3868,0.3835,0.357,0.3521,0.3561,0.3542,0.3635,0.3626,0.3619,0.3613,0.3608,0,0.211,0.2131,0.2242,0.2273,0.2326,0.2413,0.2482,0.2668,0.2764,0.3034,0.3097,0.3331,0.3446,0.3628,0.3602,0.3654,0.3815,0.3359,0.3203,0.3539,0.3526,0.3517,0.3508,0.3051,0.3042,0.3034,0.3028,0,0.2043,0.2084,0.2133,0.2195,0.2255,0.232,0.2432,0.2501,0.2719,0.2846,0.3045,0.3148,0.3295,0.323,0.322,0.3221,0.3309,0.3188,0.371,0.3101,0.298,0.2968,0.2981,0.2961,0.2968,0.2973,0.2976,0.2979,0.1992,0.2009,0.2079,0.213,0.218,0.2229,0.226,0.2386,0.2516,0.2629,0.282,0.2839,0.2872,0.2711,0.2707,0.2696,0.2874,0.2727,0.2757,0.2793,0.2616,0.248,0.2337,0.234,0.2343,0.2345,0.2347,0,0.1953,0.1986,0.2017,0.2075,0.2078,0.2143,0.2228,0.2226,0.2315,0.236,0.2426,0.2184,0.2139,0.2277,0.2123,0.2029,0.2104,0.1987,0.2107,0.2171,0.2229,0.2029,0.1594,0.1592,0.159,0.1588,0,0,0.194,0.1959,0.1977,0.1969,0.1994,0.1979,0.2002,0.199,0.1994,0.1894,0.183,0.1864,0.2036,0.1701,0.1711,0.1645,0.1896,0.1591,0.2192,0.2392,0.2447,0.2646,0.2404,0,0,0,0,0]},{"header":{"parameterUnit":"m.s-1","parameterCategory":2,"la1":30.2991,"la2":30.254,"lo1":-89.0895,"lo2":-89.0444,"dy":0.0017,"dx":0.0017,"nx":28,"ny":28,"refTime":"2025-11-15T09:00:00:Z","depth":"2","parameterNumber":3,"parameterNumberName":"V-component_of_CURRENTS"},"data":[0,0,0,0,0,0,0,0,0,0,0,0,0,0,0,0,0,0,0,0,0,0,0,0,0,0,0,0,0,0,0,0,0,0,0,0,0,0,0,0,0,0,0,0,0,0,0,0,0,0,0,0,0,0,0,0,0,0,0.0079,0.0078,0,-0.0014,-0.0016,-0.0017,-0.0078,-0.0078,-0.0079,-0.0079,-0.0181,-0.0183,-0.0186,0,0,0,0,0,0,0,0,0,0,0,0,0,0.0136,0.0135,0.0079,0.0078,0.0077,-0.0014,-0.0016,-0.0017,-0.0078,-0.0078,-0.0079,-0.0079,-0.018,-0.0183,-0.0186,0,0,0,0,0,0,0,0,0,0,0,0,0,0.0082,0.0135,0.0079,0.0037,0.0033,-0.0014,-0.0016,-0.0018,-0.0078,-0.0078,-0.0079,-0.0079,-0.0179,-0.0183,-0.0187,-0.0204,0,0,-0.0198,-0.02,0,0,0,0,0,0,0,0,0.0085,0.0079,0.0044,0.004,0.0035,-0.0033,-0.0033,-0.008,-0.0078,-0.0038,-0.0079,-0.0079,-0.0131,-0.0138,-0.0158,-0.0209,-0.0213,-0.0199,-0.0201,-0.0203,-0.0204,0,0,0,0,0,0,0,0.0089,0.0083,0.004,0.0044,0.0038,-0.0,-0.0008,-0.0043,-0.0084,-0.0042,-0.0046,-0.0053,-0.0134,-0.0155,-0.0161,-0.0215,-0.0198,-0.0202,-0.0204,-0.0206,-0.0269,-0.0269,0,0,0,0,0,0,0.0109,0.0087,0.0043,0.0037,0.0062,-0.0,-0.0009,-0.0013,-0.0083,-0.0094,-0.0052,-0.0055,-0.0148,-0.0157,-0.0165,-0.0157,-0.0202,-0.0206,-0.0208,-0.027,-0.0269,-0.0268,0,0,0,0,0,0,0.011,0.0106,0.0047,0.0061,0.0051,-0.0,-0.0004,-0.0014,-0.0029,-0.0091,-0.0102,-0.0055,-0.0149,-0.016,-0.0179,-0.0163,-0.0208,-0.0211,-0.027,-0.027,-0.0269,-0.0162,0,0,0,0,0,0,0.0112,0.0107,0.0113,0.0063,0.0051,0.0032,-0.0004,-0.0016,-0.0032,-0.0036,-0.0097,-0.0107,-0.015,-0.0173,-0.0183,-0.0169,-0.0214,-0.0271,-0.027,-0.0269,-0.0166,-0.0158,-0.015,0,0,0,0,0,0.0115,0.0127,0.0114,0.0109,0.0061,0.0033,0.0024,-0.0017,-0.0031,-0.0032,-0.0067,-0.0105,-0.0174,-0.0175,-0.0187,-0.0174,-0.0272,-0.027,-0.0269,-0.017,-0.0159,-0.015,0,0,0,0,0,0,0.0156,0.012,0.0106,0.0107,0.0079,0.0024,0.002,-0.0006,-0.0036,-0.0038,-0.0095,-0.0108,-0.0119,-0.0161,-0.0162,-0.019,-0.023,-0.0231,-0.0151,-0.0141,-0.0133,-0.0103,-0.0217,0,0,0,0,0,0.017,0.0168,0.0128,0.013,0.0121,0.0074,0.0059,0.0033,-0.0001,-0.0016,-0.0055,-0.0096,-0.0125,-0.0143,-0.0178,-0.0192,-0.0221,-0.0193,-0.0184,-0.0177,-0.0161,-0.0194,-0.0187,-0.0264,-0.0264,-0.0264,0,0,0.0186,0.0167,0.0166,0.0139,0.0114,0.0114,0.0064,0.005,0.0052,-0.0021,-0.0025,-0.0067,-0.0121,-0.0134,-0.0144,-0.0166,-0.0169,-0.0175,-0.0168,-0.0156,-0.0192,-0.0184,-0.0178,-0.0263,-0.0263,-0.0263,0,0,0.0223,0.0204,0.0217,0.0201,0.0174,0.0147,0.0151,0.0107,0.009,0.0078,0.0031,0.0007,-0.0045,-0.0076,-0.0099,-0.0068,-0.0122,-0.0087,-0.0024,-0.0056,-0.0049,-0.0044,-0.0058,-0.0055,-0.0086,-0.0086,-0.0085,0,0.0246,0.0258,0.0217,0.0228,0.0229,0.0172,0.0195,0.0167,0.0124,0.0125,0.0093,0.0037,-0.0014,-0.002,-0.0014,-0.0047,-0.0071,-0.0053,-0.0043,-0.0039,-0.0035,-0.0052,-0.005,-0.008,-0.0081,-0.0081,-0.0082,0,0.0291,0.0304,0.0312,0.0311,0.0306,0.0313,0.0279,0.0271,0.0246,0.0222,0.0212,0.0143,0.0112,0.0086,0.0043,0.0046,0.002,-0.0024,-0.0062,-0.0021,-0.0041,-0.0041,-0.0073,-0.0075,-0.0076,-0.0077,0,0,0.0337,0.0344,0.0348,0.0374,0.0354,0.036,0.0367,0.0366,0.0394,0.0335,0.0362,0.0294,0.0257,0.0228,0.0166,0.0131,0.0131,0.007,0.0066,0.0068,0.0075,-0.0016,-0.0025,0.0085,0.0086,0.0086,0.0056,0,0.0389,0.0437,0.0423,0.0481,0.0509,0.0474,0.0492,0.0482,0.0471,0.048,0.0404,0.0401,0.031,0.0301,0.0252,0.0169,0.0134,0.0144,0.0024,0.0022,-0.0056,-0.0028,-0.0021,-0.0054,0.0056,0.0056,0.0056,0,0.0443,0.0471,0.0532,0.0582,0.0592,0.0612,0.0652,0.0666,0.0655,0.0648,0.0622,0.056,0.0509,0.0418,0.0299,0.031,0.0206,0.0128,0.0124,0.0003,-0.007,-0.0082,-0.0058,0.0056,0.0056,0.0056,0.0056,0,0.0504,0.0556,0.0613,0.0625,0.0658,0.0685,0.0708,0.0718,0.0762,0.0761,0.0784,0.0706,0.0683,0.054,0.0371,0.0336,0.0241,0.0167,-0.0009,-0.0016,-0.0052,-0.0064,0.0081,0.0081,0.0081,0.0081,0.0081,0,0.0569,0.062,0.0647,0.0678,0.0763,0.0762,0.0854,0.0865,0.0906,0.0974,0.0878,0.0916,0.071,0.0619,0.0437,0.0231,0.029,0.0014,-0.0032,-0.0016,-0.0024,0.003,0.0025,0.008,0.008,0.008,0.008,0,0.0631,0.0641,0.0718,0.0767,0.0792,0.0856,0.0953,0.1025,0.1043,0.1127,0.1128,0.109,0.0973,0.0755,0.0552,0.0329,0.0132,0.0041,0.008,0.0036,-0.0122,-0.0122,-0.0171,-0.0175,-0.0178,-0.018,-0.0182,0,0.0668,0.0708,0.0787,0.084,0.0867,0.096,0.103,0.1089,0.1178,0.1241,0.1294,0.1217,0.1162,0.0837,0.048,0.0145,0.0133,-0.0099,-0.0197,-0.0109,-0.0149,-0.0144,-0.0139,-0.0185,-0.0187,-0.0188,-0.0189,0,0.0744,0.0762,0.082,0.0925,0.1007,0.1123,0.1229,0.1323,0.1393,0.1465,0.1564,0.1521,0.1187,0.0845,0.0357,0.0137,-0.0057,-0.0149,-0.0038,-0.0143,-0.0131,-0.0167,-0.016,-0.0204,-0.0202,-0.0201,-0.02,-0.02,0.0796,0.0852,0.0917,0.1022,0.1124,0.1269,0.1388,0.1518,0.1674,0.1731,0.1695,0.1566,0.1162,0.0493,0.018,-0.0155,-0.017,-0.0345,-0.0336,-0.0326,-0.0343,-0.034,-0.0452,-0.0452,-0.0452,-0.0452,-0.0452,0,0.0852,0.0911,0.1013,0.114,0.1268,0.131,0.1509,0.164,0.1842,0.1769,0.1769,0.1287,0.0877,0.0495,-0.0047,-0.0404,-0.0375,-0.0473,-0.0374,-0.036,-0.0348,-0.0363,-0.0479,-0.0479,-0.048,-0.048,0,0,0.0882,0.0975,0.1026,0.123,0.1332,0.1527,0.1654,0.185,0.1877,0.1802,0.1617,0.1317,0.0856,0.0431,0.0031,-0.0211,-0.0197,-0.0247,-0.0205,-0.0029,-0.0012,-0.027,-0.0278,0,0,0,0,0]}],[{"header":{"parameterUnit":"m.s-1","parameterCategory":2,"la1":30.2991,"la2":30.254,"lo1":-89.0895,"lo2":-89.0444,"dy":0.0017,"dx":0.0017,"nx":28,"ny":28,"refTime":"2025-11-15T09:00:00:Z","depth":"4","parameterNumber":2,"parameterNumberName":"U-component_of_CURRENTS"},"data":[0,0,0,0,0,0,0,0,0,0,0,0,0,0,0,0,0,0,0,0,0,0,0,0,0,0,0,0,0,0,0,0,0,0,0,0,0,0,0,0,0,0,0,0,0,0,0,0,0,0,0,0,0,0,0,0,0,0,0.0764,0.0764,0,0.0799,0.0799,0.0799,0.0857,0.0859,0.086,0.0861,0.0925,0.0925,0.0925,0,0,0,0,0,0,0,0,0,0,0,0,0,0.0706,0.0706,0.0764,0.0765,0.0765,0.0799,0.0799,0.0799,0.0857,0.0859,0.086,0.0862,0.0924,0.0925,0.0925,0,0,0,0,0,0,0,0,0,0,0,0,0,0.0731,0.0707,0.0764,0.0801,0.0805,0.0799,0.0799,0.0799,0.0856,0.0859,0.0861,0.0863,0.0924,0.0925,0.0925,0.0884,0,0,0.0927,0.0927,0,0,0,0,0,0,0,0,0.0729,0.0732,0.0795,0.0799,0.0803,0.083,0.0802,0.0831,0.0856,0.0832,0.0861,0.0864,0.0897,0.0899,0.0895,0.0887,0.089,0.0927,0.0927,0.0927,0.0927,0,0,0,0,0,0,0,0.0728,0.0731,0.0773,0.0796,0.0801,0.0803,0.0809,0.0807,0.0849,0.0835,0.084,0.085,0.0899,0.0894,0.0897,0.0891,0.0927,0.0927,0.0927,0.0928,0.0978,0.0979,0,0,0,0,0,0,0.0732,0.0729,0.0772,0.0775,0.0776,0.0803,0.0809,0.0815,0.0849,0.0857,0.0848,0.0853,0.0892,0.0896,0.0899,0.0976,0.0927,0.0928,0.0928,0.0977,0.0978,0.0979,0,0,0,0,0,0,0.073,0.0735,0.0771,0.0757,0.0762,0.0802,0.0808,0.0815,0.0846,0.0859,0.0868,0.0877,0.0894,0.0899,0.0943,0.0974,0.0928,0.0928,0.0976,0.0977,0.0979,0.105,0,0,0,0,0,0,0.0728,0.0734,0.0741,0.0757,0.0763,0.08,0.0807,0.0814,0.0849,0.0856,0.0886,0.0892,0.0896,0.0943,0.0944,0.0974,0.0929,0.0974,0.0976,0.0978,0.1046,0.1053,0.106,0,0,0,0,0,0.0726,0.073,0.0741,0.0747,0.0771,0.0801,0.0805,0.0837,0.0848,0.087,0.0898,0.0893,0.0956,0.0944,0.0945,0.0976,0.0973,0.0976,0.0978,0.1043,0.1052,0.106,0,0,0,0,0,0,0.071,0.0737,0.0749,0.0762,0.0795,0.0814,0.0834,0.0849,0.0882,0.0898,0.0906,0.0914,0.0963,0.0955,0.0942,0.0995,0.0963,0.0965,0.1012,0.102,0.1027,0.1009,0.0929,0,0,0,0,0,0.0707,0.0724,0.0751,0.0769,0.0786,0.0811,0.0827,0.0852,0.0881,0.0899,0.0925,0.0946,0.0963,0.0984,0.0996,0.1022,0.1013,0.1042,0.1049,0.1055,0.1041,0.1066,0.1074,0.0987,0.0987,0.0987,0,0,0.0706,0.0726,0.0735,0.0768,0.0793,0.0821,0.0827,0.0868,0.09,0.0898,0.0959,0.0972,0.0975,0.1015,0.1035,0.1021,0.1078,0.1058,0.1063,0.1045,0.1069,0.1077,0.1085,0.0989,0.0988,0.0988,0,0,0.0712,0.0733,0.0748,0.078,0.0828,0.0845,0.0864,0.0905,0.0938,0.0987,0.0994,0.1029,0.1062,0.1072,0.1076,0.1122,0.1112,0.1132,0.1158,0.1183,0.1191,0.1197,0.1213,0.122,0.1138,0.1138,0.1138,0,0.0714,0.0735,0.076,0.079,0.0821,0.0861,0.0891,0.0923,0.0978,0.1002,0.1025,0.1084,0.1084,0.1123,0.1135,0.1138,0.1147,0.113,0.1193,0.1199,0.1204,0.1218,0.1225,0.1142,0.1142,0.1141,0.1141,0,0.0727,0.0757,0.0776,0.0825,0.0858,0.09,0.0947,0.099,0.1034,0.1062,0.1134,0.1157,0.1199,0.1198,0.1175,0.1213,0.1207,0.1199,0.1173,0.1217,0.123,0.1235,0.1147,0.1146,0.1145,0.1144,0,0,0.0702,0.077,0.0782,0.0817,0.0886,0.0917,0.0973,0.1026,0.107,0.114,0.1202,0.1229,0.1263,0.1267,0.1271,0.1269,0.1307,0.1245,0.1245,0.1262,0.1365,0.1294,0.1293,0.132,0.1321,0.1322,0.1365,0,0.0713,0.0766,0.08,0.0867,0.0899,0.0957,0.1008,0.1064,0.112,0.1192,0.1236,0.1294,0.1291,0.1321,0.1336,0.1317,0.1323,0.1295,0.1317,0.1317,0.125,0.1297,0.1325,0.1369,0.1371,0.1372,0.1372,0,0.0709,0.0751,0.0807,0.0894,0.0916,0.0972,0.106,0.1112,0.1198,0.1242,0.1324,0.1364,0.1415,0.139,0.1432,0.1423,0.1393,0.1364,0.1366,0.127,0.1255,0.1311,0.1382,0.1381,0.1381,0.138,0.1379,0,0.0672,0.0757,0.0805,0.0837,0.0935,0.0988,0.1053,0.1135,0.1193,0.1283,0.1345,0.1425,0.1497,0.149,0.1474,0.1458,0.1485,0.1469,0.1377,0.1373,0.1392,0.1384,0.1461,0.1461,0.1461,0.1461,0.1461,0,0.0661,0.0703,0.0805,0.084,0.0915,0.0993,0.1088,0.1142,0.1254,0.1312,0.1398,0.1458,0.1519,0.1556,0.1509,0.1484,0.1544,0.138,0.1379,0.1422,0.1418,0.1397,0.1389,0.1463,0.1462,0.1462,0.1462,0,0.0606,0.0671,0.0732,0.0853,0.09,0.0959,0.1117,0.1171,0.1286,0.1372,0.1407,0.1521,0.1556,0.1594,0.1573,0.154,0.1489,0.1445,0.1498,0.15,0.1349,0.1344,0.1368,0.1366,0.1364,0.1362,0.1361,0,0.0581,0.0605,0.073,0.0771,0.0839,0.0951,0.1019,0.1161,0.1208,0.1377,0.1395,0.1502,0.155,0.1518,0.153,0.1489,0.1443,0.1436,0.1369,0.1342,0.134,0.1338,0.1336,0.1358,0.1358,0.1357,0.1357,0,0.0526,0.0575,0.0628,0.0711,0.0797,0.0891,0.1003,0.1036,0.1176,0.1302,0.1356,0.1396,0.1447,0.1451,0.1448,0.1393,0.1459,0.1416,0.1418,0.1355,0.1331,0.133,0.133,0.135,0.1351,0.1352,0.1352,0,0.0484,0.0503,0.0574,0.0641,0.0743,0.0814,0.0881,0.096,0.1047,0.1217,0.1217,0.1324,0.1418,0.1398,0.1372,0.1355,0.1317,0.1266,0.1275,0.1283,0.1232,0.1187,0.1163,0,0,0,0,0,0.0442,0.0456,0.0501,0.0584,0.0678,0.0745,0.0858,0.0918,0.1047,0.1052,0.1144,0.1167,0.1207,0.125,0.1208,0.1305,0.1302,0.1251,0.1243,0.1315,0.1323,0.1269,0,0,0,0,0,0,0.0415,0.0451,0.0472,0.0531,0.0571,0.0678,0.0749,0.0823,0.0831,0.0958,0.0972,0.1098,0.1128,0.1213,0.1186,0.1198,0.1169,0.1316,0.1313,0.1311,0.1318,0.1324,0.1272,0,0,0,0,0]},{"header":{"parameterUnit":"m.s-1","parameterCategory":2,"la1":30.2991,"la2":30.254,"lo1":-89.0895,"lo2":-89.0444,"dy":0.0017,"dx":0.0017,"nx":28,"ny":28,"refTime":"2025-11-15T09:00:00:Z","depth":"4","parameterNumber":3,"parameterNumberName":"V-component_of_CURRENTS"},"data":[0,0,0,0,0,0,0,0,0,0,0,0,0,0,0,0,0,0,0,0,0,0,0,0,0,0,0,0,0,0,0,0,0,0,0,0,0,0,0,0,0,0,0,0,0,0,0,0,0,0,0,0,0,0,0,0,0,0,0.0083,0.0083,0,0.0053,0.0053,0.0053,0.0031,0.0031,0.0031,0.003,-0.0032,-0.0033,-0.0035,0,0,0,0,0,0,0,0,0,0,0,0,0,0.0094,0.0094,0.0083,0.0083,0.0083,0.0054,0.0053,0.0053,0.0031,0.0031,0.0031,0.003,-0.0031,-0.0033,-0.0035,0,0,0,0,0,0,0,0,0,0,0,0,0,0.0079,0.0094,0.0083,0.0068,0.0067,0.0054,0.0053,0.0053,0.0031,0.0031,0.003,0.003,-0.0031,-0.0033,-0.0035,-0.0044,0,0,-0.0042,-0.0043,0,0,0,0,0,0,0,0,0.008,0.0079,0.0071,0.0069,0.0068,0.0046,0.0034,0.0019,0.0031,0.0044,0.003,0.003,-0.0009,-0.0013,-0.0018,-0.0047,-0.005,-0.0042,-0.0044,-0.0045,-0.0045,0,0,0,0,0,0,0,0.0081,0.008,0.0071,0.0071,0.0069,0.0054,0.0052,0.0031,0.0019,0.0043,0.0042,0.0039,-0.001,-0.0015,-0.0019,-0.0051,-0.0042,-0.0044,-0.0046,-0.0046,-0.0132,-0.0132,0,0,0,0,0,0,0.0087,0.0081,0.0072,0.007,0.0074,0.0054,0.0052,0.0053,0.002,0.0015,0.0039,0.0038,-0.0011,-0.0017,-0.0022,-0.0056,-0.0045,-0.0047,-0.0048,-0.0131,-0.0132,-0.0133,0,0,0,0,0,0,0.0088,0.0087,0.0073,0.0075,0.0072,0.0054,0.0056,0.0052,0.0046,0.0017,0.0011,0.0035,-0.0012,-0.0018,-0.0051,-0.0058,-0.0048,-0.005,-0.013,-0.0131,-0.0132,-0.0112,0,0,0,0,0,0,0.0088,0.0087,0.0093,0.0076,0.0072,0.0062,0.0056,0.0052,0.0044,0.0042,0.0012,0.0006,-0.0012,-0.0048,-0.0054,-0.0061,-0.0052,-0.0128,-0.013,-0.0132,-0.0111,-0.0112,-0.0113,0,0,0,0,0,0.0089,0.0097,0.0094,0.0093,0.008,0.0062,0.0059,0.0045,0.0044,0.0039,0.0013,0.0007,-0.0063,-0.005,-0.0057,-0.0065,-0.0128,-0.013,-0.0132,-0.0111,-0.0112,-0.0113,0,0,0,0,0,0,0.0103,0.0095,0.0091,0.0096,0.0079,0.0058,0.0055,0.0047,0.0024,0.0021,-0.0003,-0.0011,-0.0045,-0.006,-0.0046,-0.0097,-0.0097,-0.01,-0.0079,-0.008,-0.0081,-0.0061,-0.0053,0,0,0,0,0,0.011,0.0113,0.0097,0.0099,0.0093,0.0075,0.0069,0.0056,0.0034,0.0025,0.0002,-0.0027,-0.0058,-0.0072,-0.0102,-0.0125,-0.0145,-0.0137,-0.0138,-0.0138,-0.0128,-0.0175,-0.0179,-0.0139,-0.0139,-0.0139,0,0,0.0117,0.0111,0.0114,0.0102,0.009,0.0084,0.007,0.0057,0.005,0.002,0.0003,-0.0031,-0.0066,-0.0098,-0.0114,-0.0111,-0.0162,-0.0141,-0.0141,-0.013,-0.0177,-0.0181,-0.0184,-0.0141,-0.0141,-0.014,0,0,0.0129,0.0126,0.0133,0.012,0.0103,0.0089,0.0087,0.0063,0.0051,0.0026,-0.0001,-0.0038,-0.0077,-0.0106,-0.0125,-0.0148,-0.0168,-0.016,-0.0143,-0.0189,-0.0192,-0.0195,-0.0229,-0.0235,-0.0157,-0.0157,-0.0157,0,0.0137,0.0146,0.013,0.0129,0.0123,0.0094,0.0096,0.0078,0.0045,0.0033,0.0021,-0.0052,-0.008,-0.0121,-0.0128,-0.0148,-0.0173,-0.0133,-0.0189,-0.0192,-0.0195,-0.0229,-0.0236,-0.0156,-0.0156,-0.0156,-0.0156,0,0.0154,0.0159,0.0158,0.0152,0.0141,0.0133,0.0109,0.0092,0.0072,0.0052,0.0004,-0.0046,-0.0087,-0.0107,-0.0121,-0.0161,-0.0172,-0.0186,-0.018,-0.0198,-0.0233,-0.024,-0.0155,-0.0155,-0.0156,-0.0156,0,0,0.0174,0.0173,0.0173,0.0177,0.0153,0.0146,0.0131,0.0108,0.01,0.0052,0.0029,-0.003,-0.0061,-0.0084,-0.012,-0.0155,-0.0201,-0.0172,-0.0175,-0.0194,-0.0296,-0.0272,-0.0278,-0.0226,-0.0227,-0.0228,-0.0312,0,0.0192,0.0207,0.0197,0.0203,0.0208,0.0177,0.0168,0.0141,0.0108,0.0075,0.0014,-0.0023,-0.0052,-0.0076,-0.0119,-0.0185,-0.022,-0.0177,-0.0286,-0.0288,-0.0255,-0.0286,-0.0232,-0.0317,-0.0319,-0.032,-0.0321,0,0.0211,0.0221,0.0241,0.0236,0.0235,0.0234,0.0212,0.0198,0.0144,0.0115,0.0059,0.0009,-0.0057,-0.0077,-0.0195,-0.0168,-0.0223,-0.0271,-0.0276,-0.0261,-0.0278,-0.0298,-0.0335,-0.0334,-0.0333,-0.0332,-0.0331,0,0.0239,0.0247,0.0268,0.0267,0.0259,0.0261,0.0253,0.0214,0.0207,0.0142,0.0124,0.0026,-0.0017,-0.0113,-0.0212,-0.0208,-0.0338,-0.0351,-0.0381,-0.038,-0.0384,-0.038,-0.0424,-0.0424,-0.0424,-0.0424,-0.0424,0,0.0257,0.027,0.0288,0.0298,0.032,0.03,0.0308,0.028,0.0247,0.0239,0.0152,0.0116,-0.0026,-0.0118,-0.0213,-0.032,-0.0345,-0.0379,-0.0402,-0.0375,-0.0369,-0.039,-0.0385,-0.0427,-0.0426,-0.0426,-0.0425,0,0.0271,0.0285,0.0311,0.0327,0.0335,0.035,0.0358,0.0357,0.0325,0.0308,0.0292,0.0179,0.0055,-0.0082,-0.0241,-0.0306,-0.0421,-0.0447,-0.0403,-0.0422,-0.0432,-0.0425,-0.0497,-0.0497,-0.0497,-0.0497,-0.0497,0,0.0277,0.0298,0.034,0.036,0.037,0.0395,0.0409,0.0396,0.0398,0.0348,0.0338,0.0224,0.0138,-0.0076,-0.0223,-0.0411,-0.0424,-0.0477,-0.0457,-0.0425,-0.0441,-0.0434,-0.0428,-0.0497,-0.0496,-0.0496,-0.0496,0,0.0287,0.0309,0.0332,0.0384,0.0415,0.0449,0.0471,0.0477,0.0461,0.0446,0.0377,0.0259,0.0122,-0.0063,-0.0203,-0.0336,-0.0446,-0.0476,-0.0477,-0.0459,-0.0426,-0.044,-0.0433,-0.0496,-0.0496,-0.0496,-0.0496,0,0.0294,0.0315,0.0356,0.0395,0.0446,0.0482,0.0489,0.049,0.0494,0.0447,0.0424,0.0268,0.0177,-0.0024,-0.0161,-0.0287,-0.0313,-0.0339,-0.0347,-0.035,-0.0279,-0.0213,-0.0239,0,0,0,0,0,0.03,0.0324,0.0359,0.0409,0.046,0.0491,0.0521,0.0521,0.052,0.0486,0.0459,0.0332,0.0126,0.0018,-0.0103,-0.0167,-0.0343,-0.0311,-0.0378,-0.0494,-0.0494,-0.0434,0,0,0,0,0,0,0.0303,0.0341,0.0358,0.0419,0.0453,0.0511,0.0532,0.0524,0.05,0.0478,0.036,0.0326,0.0108,0.0201,-0.0098,-0.0138,-0.0191,-0.0407,-0.0409,-0.0494,-0.0494,-0.0494,-0.0432,0,0,0,0,0]}]]